[[{"header":{"parameterUnit":"m.s-1","parameterCategory":1,"la1":30.2991,"la2":30.254,"lo1":-89.0895,"lo2":-89.0444,"dy":0.0017,"dx":0.0017,"nx":28,"ny":28,"refTime":"2023-07-23T21:00:00:Z","depth":0,"parameterNumber":2,"parameterNumberName":"U-component_of_WINDS"},"data":[0,0,0,0,0,0,0,0,0,0,0,0,0,0,0,0,0,0,0,0,0,0,0,0,0,0,0,0,0,0,0,0,0,0,0,0,0,0,0,0,0,0,0,0,0,0,0,0,0,0,0,0,0,0,0,0,0,0,-0.2225,-0.2223,0,-0.2109,-0.2108,-0.2107,-0.2042,-0.2042,-0.2041,-0.2041,-0.192,-0.1917,-0.1914,0,0,0,0,0,0,0,0,0,0,0,0,0,-0.2388,-0.2385,-0.2225,-0.2223,-0.2222,-0.2109,-0.2108,-0.2106,-0.2042,-0.2042,-0.2041,-0.2041,-0.1921,-0.1917,-0.1914,0,0,0,0,0,0,0,0,0,0,0,0,0,-0.2299,-0.2384,-0.2225,-0.2176,-0.2171,-0.211,-0.2108,-0.2106,-0.2042,-0.2042,-0.2041,-0.2041,-0.1922,-0.1918,-0.1913,-0.1891,0,0,-0.1899,-0.1897,0,0,0,0,0,0,0,0,-0.2304,-0.2293,-0.2185,-0.2179,-0.2173,-0.209,-0.2121,-0.2034,-0.2042,-0.2091,-0.2041,-0.2041,-0.1976,-0.1967,-0.1946,-0.1885,-0.188,-0.1899,-0.1896,-0.1894,-0.1893,0,0,0,0,0,0,0,-0.231,-0.2298,-0.2179,-0.2183,-0.2176,-0.216,-0.2147,-0.2104,-0.2036,-0.2086,-0.2081,-0.2069,-0.1973,-0.1951,-0.1943,-0.1878,-0.1899,-0.1895,-0.1892,-0.189,-0.1794,-0.1794,0,0,0,0,0,0,-0.2325,-0.2303,-0.2182,-0.2175,-0.2239,-0.2157,-0.2142,-0.2117,-0.2037,-0.2024,-0.2069,-0.2066,-0.1959,-0.1948,-0.1938,-0.1907,-0.1894,-0.189,-0.1887,-0.1794,-0.1794,-0.1794,0,0,0,0,0,0,-0.2328,-0.2314,-0.2187,-0.2238,-0.222,-0.2154,-0.2126,-0.2115,-0.2092,-0.2024,-0.2011,-0.2059,-0.1958,-0.1945,-0.1904,-0.1902,-0.1888,-0.1884,-0.1794,-0.1794,-0.1794,-0.1845,0,0,0,0,0,0,-0.2333,-0.2316,-0.2307,-0.2238,-0.2218,-0.2155,-0.2126,-0.2113,-0.2085,-0.208,-0.2011,-0.1999,-0.1957,-0.1911,-0.1899,-0.1896,-0.188,-0.1793,-0.1794,-0.1794,-0.1843,-0.1847,-0.1851,0,0,0,0,0,-0.2339,-0.2325,-0.2307,-0.2293,-0.2206,-0.2155,-0.2143,-0.2096,-0.2085,-0.2075,-0.2032,-0.2001,-0.1905,-0.1907,-0.1893,-0.1889,-0.1793,-0.1794,-0.1794,-0.1842,-0.1847,-0.1851,0,0,0,0,0,0,-0.2395,-0.2315,-0.2294,-0.2258,-0.2214,-0.2144,-0.213,-0.2102,-0.206,-0.2057,-0.1999,-0.1984,-0.1948,-0.1914,-0.1918,-0.1863,-0.1846,-0.1843,-0.1887,-0.1891,-0.1894,-0.1903,-0.1876,0,0,0,0,0,-0.2403,-0.2369,-0.2301,-0.2276,-0.2255,-0.2197,-0.2173,-0.2141,-0.2092,-0.2073,-0.2026,-0.198,-0.1939,-0.1913,-0.1871,-0.1839,-0.1823,-0.1829,-0.1832,-0.1836,-0.1834,-0.1815,-0.1817,-0.1796,-0.1796,-0.1796,0,0,-0.2419,-0.2372,-0.2353,-0.2286,-0.2248,-0.2214,-0.2181,-0.2146,-0.212,-0.2067,-0.2025,-0.199,-0.1934,-0.1898,-0.1879,-0.1868,-0.1837,-0.1836,-0.1839,-0.1836,-0.1815,-0.1817,-0.1819,-0.1796,-0.1796,-0.1796,0,0,-0.2431,-0.2392,-0.2366,-0.233,-0.2273,-0.2235,-0.2229,-0.2164,-0.2138,-0.2096,-0.2056,-0.2024,-0.1955,-0.1917,-0.1889,-0.1889,-0.1859,-0.1877,-0.1895,-0.1877,-0.1879,-0.188,-0.188,-0.1881,-0.1876,-0.1876,-0.1876,0,-0.2458,-0.2405,-0.2357,-0.2324,-0.2296,-0.2248,-0.2222,-0.2188,-0.212,-0.2102,-0.2091,-0.2004,-0.1963,-0.1917,-0.1918,-0.1896,-0.1888,-0.1884,-0.1883,-0.1883,-0.1884,-0.1883,-0.1883,-0.1878,-0.1878,-0.1878,-0.1877,0,-0.2441,-0.2405,-0.2392,-0.2329,-0.2299,-0.227,-0.2217,-0.2192,-0.2163,-0.2126,-0.2084,-0.2034,-0.1982,-0.1969,-0.1939,-0.1919,-0.1914,-0.1894,-0.1875,-0.1889,-0.1887,-0.1887,-0.1882,-0.1881,-0.188,-0.188,0,0,-0.2483,-0.2396,-0.2391,-0.2363,-0.2298,-0.2269,-0.2238,-0.2188,-0.2169,-0.2124,-0.2096,-0.204,-0.2022,-0.199,-0.1956,-0.194,-0.1944,-0.1922,-0.1919,-0.1927,-0.1918,-0.1934,-0.1934,-0.1924,-0.1924,-0.1924,-0.1923,0,-0.2485,-0.2428,-0.2384,-0.2343,-0.231,-0.2265,-0.2238,-0.2195,-0.216,-0.2126,-0.2087,-0.2048,-0.2026,-0.2007,-0.199,-0.1947,-0.1941,-0.1946,-0.1897,-0.1896,-0.1912,-0.1933,-0.1949,-0.195,-0.1922,-0.1922,-0.1922,0,-0.248,-0.2439,-0.2395,-0.2334,-0.2319,-0.2295,-0.2247,-0.2215,-0.2166,-0.2142,-0.2107,-0.2073,-0.2038,-0.2023,-0.1974,-0.1979,-0.1957,-0.1933,-0.1932,-0.1925,-0.1909,-0.1926,-0.195,-0.195,-0.192,-0.192,-0.192,0,-0.2515,-0.2448,-0.2414,-0.2391,-0.2319,-0.2304,-0.2274,-0.2224,-0.2197,-0.2155,-0.2137,-0.2091,-0.2066,-0.2031,-0.1985,-0.1978,-0.1941,-0.1922,-0.1919,-0.192,-0.1912,-0.1913,-0.1932,-0.1899,-0.1899,-0.1899,-0.1899,0,-0.2522,-0.2497,-0.2429,-0.2407,-0.2378,-0.2328,-0.2301,-0.2266,-0.2223,-0.2194,-0.2152,-0.2125,-0.2066,-0.2033,-0.1996,-0.1961,-0.195,-0.1929,-0.192,-0.1933,-0.1935,-0.1917,-0.1915,-0.1899,-0.1899,-0.1899,-0.1899,0,-0.2555,-0.2509,-0.2468,-0.2405,-0.2388,-0.237,-0.2315,-0.2292,-0.2256,-0.222,-0.2208,-0.2151,-0.2109,-0.206,-0.2002,-0.1978,-0.1946,-0.1932,-0.1963,-0.1957,-0.1957,-0.1958,-0.1964,-0.1963,-0.1932,-0.1932,-0.1932,0,-0.2563,-0.2542,-0.2477,-0.2456,-0.2427,-0.2392,-0.2365,-0.2315,-0.2289,-0.2232,-0.2217,-0.2172,-0.2134,-0.207,-0.2022,-0.1978,-0.1962,-0.1968,-0.1955,-0.1969,-0.1962,-0.1964,-0.1962,-0.1971,-0.1971,-0.1972,-0.1972,0,-0.258,-0.2559,-0.2522,-0.2478,-0.2447,-0.2409,-0.237,-0.2354,-0.2297,-0.2269,-0.2227,-0.2198,-0.2139,-0.2096,-0.2046,-0.2014,-0.1983,-0.1977,-0.1974,-0.1986,-0.2005,-0.1995,-0.1972,-0.1977,-0.1976,-0.1976,-0.1976,-0.1975,-0.26,-0.2581,-0.2533,-0.2493,-0.2459,-0.2423,-0.2399,-0.2361,-0.2325,-0.2274,-0.2247,-0.2206,-0.2157,-0.2088,-0.2057,-0.2023,-0.2013,-0.2008,-0.2007,-0.2007,-0.2011,-0.2012,-0.2014,-0.2014,-0.2014,-0.2014,-0.2013,0,-0.2616,-0.2583,-0.2548,-0.2494,-0.2464,-0.2439,-0.2395,-0.2371,-0.2335,-0.2293,-0.2257,-0.2209,-0.2167,-0.2117,-0.2072,-0.2055,-0.204,-0.2044,-0.2045,-0.2038,-0.2023,-0.203,-0.2057,-0.2057,-0.2057,-0.2057,-0.2057,-0.2057,-0.262,-0.2586,-0.2559,-0.2508,-0.2474,-0.2434,-0.2411,-0.2378,-0.2345,-0.2293,-0.2258,-0.2227,-0.2182,-0.2133,-0.2094,-0.208,-0.2065,-0.2074,-0.2056,-0.2043,-0.2039,-0.2035,-0.2042,-0.2071,-0.2071,-0.2074,-0.2074,-0.2074]},{"header":{"parameterUnit":"m.s-1","parameterCategory":1,"la1":30.2991,"la2":30.254,"lo1":-89.0895,"lo2":-89.0444,"dy":0.0017,"dx":0.0017,"nx":28,"ny":28,"refTime":"2023-07-23T21:00:00:Z","depth":0,"parameterNumber":3,"parameterNumberName":"V-component_of_WINDS"},"data":[0,0,0,0,0,0,0,0,0,0,0,0,0,0,0,0,0,0,0,0,0,0,0,0,0,0,0,0,0,0,0,0,0,0,0,0,0,0,0,0,0,0,0,0,0,0,0,0,0,0,0,0,0,0,0,0,0,0,3.1726,3.1726,0,3.1685,3.1685,3.1684,3.1714,3.1715,3.1716,3.1718,3.1669,3.1667,3.1664,0,0,0,0,0,0,0,0,0,0,0,0,0,3.1824,3.1823,3.1726,3.1726,3.1725,3.1685,3.1685,3.1684,3.1714,3.1715,3.1717,3.1718,3.167,3.1667,3.1664,0,0,0,0,0,0,0,0,0,0,0,0,0,3.1782,3.1822,3.1726,3.1735,3.1736,3.1685,3.1685,3.1684,3.1713,3.1715,3.1717,3.1719,3.1671,3.1668,3.1664,3.16,0,0,3.1652,3.1651,0,0,0,0,0,0,0,0,3.1785,3.1779,3.1734,3.1735,3.1735,3.1707,3.1702,3.1656,3.1713,3.1721,3.1718,3.172,3.168,3.1675,3.1663,3.1598,3.1596,3.1652,3.165,3.1648,3.1647,0,0,0,0,0,0,0,3.1787,3.178,3.171,3.1734,3.1734,3.1739,3.1736,3.1693,3.169,3.1721,3.1723,3.1718,3.168,3.1667,3.1662,3.1595,3.1652,3.1649,3.1646,3.1645,3.1475,3.1473,0,0,0,0,0,0,3.179,3.1783,3.1711,3.1709,3.1765,3.1736,3.1732,3.1714,3.169,3.1689,3.1716,3.172,3.1672,3.1667,3.1661,3.1584,3.1648,3.1644,3.1642,3.1477,3.1475,3.1472,0,0,0,0,0,0,3.1792,3.1784,3.1713,3.1746,3.1738,3.1732,3.1712,3.1712,3.1698,3.1687,3.1686,3.1703,3.1674,3.1666,3.1615,3.1582,3.1643,3.1639,3.148,3.1476,3.1473,3.143,0,0,0,0,0,0,3.1795,3.1784,3.1762,3.1746,3.1736,3.167,3.171,3.171,3.1692,3.1696,3.1675,3.1673,3.1675,3.1621,3.1612,3.1578,3.1636,3.1483,3.1478,3.1474,3.1434,3.1426,3.1418,0,0,0,0,0,3.1799,3.175,3.176,3.1751,3.1707,3.1668,3.1662,3.1667,3.169,3.1666,3.1658,3.1674,3.1588,3.1615,3.1605,3.157,3.1485,3.148,3.1475,3.1438,3.1427,3.1418,0,0,0,0,0,0,3.176,3.1748,3.1759,3.1704,3.1687,3.1673,3.1643,3.1655,3.163,3.1634,3.1639,3.1634,3.158,3.1571,3.1601,3.1507,3.154,3.1532,3.1515,3.1505,3.1497,3.15,3.1633,0,0,0,0,0,3.1746,3.1716,3.1707,3.1659,3.165,3.1648,3.1631,3.1636,3.1618,3.161,3.1599,3.1578,3.1547,3.1526,3.1496,3.1434,3.1428,3.1405,3.1397,3.139,3.1383,3.1348,3.1336,3.1456,3.1456,3.1456,0,0,3.1714,3.1704,3.1685,3.1651,3.1638,3.1606,3.1641,3.1606,3.1581,3.1604,3.1555,3.1547,3.1524,3.1467,3.1441,3.1457,3.1349,3.1384,3.1379,3.1375,3.1341,3.133,3.132,3.1452,3.1453,3.1453,0,0,3.1641,3.1631,3.159,3.1577,3.1558,3.1557,3.1547,3.1531,3.1526,3.1479,3.1495,3.1465,3.1411,3.1394,3.1378,3.1299,3.1311,3.1289,3.1246,3.1211,3.1202,3.1193,3.1163,3.1152,3.1282,3.1282,3.1282,0,3.1604,3.1557,3.1567,3.153,3.1513,3.1535,3.1492,3.1478,3.1449,3.1437,3.1456,3.1388,3.1375,3.1313,3.1294,3.1281,3.1268,3.129,3.1203,3.1194,3.1187,3.1158,3.1147,3.1279,3.128,3.128,3.128,0,3.1512,3.1479,3.1448,3.1422,3.1402,3.1362,3.1364,3.1343,3.135,3.1346,3.1296,3.1281,3.1248,3.1235,3.1241,3.1173,3.1184,3.1203,3.1235,3.1173,3.1145,3.1135,3.1276,3.1277,3.1277,3.1278,0,0,3.1411,3.1392,3.1379,3.1367,3.1348,3.1322,3.1283,3.1253,3.1234,3.1214,3.1179,3.1133,3.1151,3.1133,3.1137,3.1107,3.1043,3.113,3.1129,3.1112,3.0966,3.095,3.0938,3.1052,3.105,3.1049,3.0967,0,3.1335,3.1268,3.1275,3.1211,3.118,3.12,3.1166,3.1149,3.1145,3.1116,3.1111,3.1078,3.1104,3.1094,3.1065,3.1057,3.1013,3.1063,3.1018,3.1016,3.1021,3.0924,3.0907,3.0831,3.0957,3.0955,3.0954,0,3.1237,3.1215,3.1148,3.1133,3.112,3.1089,3.1062,3.1036,3.1017,3.1016,3.0996,3.1006,3.0964,3.0999,3.094,3.0974,3.0956,3.0949,3.0946,3.094,3.0979,3.0913,3.0807,3.0795,3.0938,3.0939,3.094,0,3.1167,3.1121,3.1075,3.1064,3.1047,3.1024,3.1015,3.0999,3.098,3.0956,3.0943,3.0914,3.0897,3.0873,3.0873,3.09,3.0813,3.0849,3.0809,3.0809,3.0788,3.0789,3.0675,3.078,3.078,3.078,3.078,0,3.1081,3.1038,3.1044,3.1015,3.0967,3.0976,3.0928,3.0921,3.0906,3.0875,3.0891,3.0861,3.0865,3.0834,3.0834,3.0784,3.0777,3.0773,3.0773,3.077,3.077,3.0757,3.0761,3.0777,3.0778,3.0778,3.0779,0,3.0994,3.0997,3.0947,3.0935,3.0931,3.0896,3.0885,3.0856,3.0854,3.0814,3.0805,3.0801,3.0766,3.0765,3.0723,3.0723,3.0662,3.0669,3.0669,3.0669,3.0629,3.0632,3.0501,3.0483,3.0601,3.06,3.0599,0,3.0937,3.0905,3.089,3.0872,3.0862,3.0831,3.0813,3.082,3.08,3.0776,3.075,3.0716,3.069,3.0632,3.0623,3.0592,3.0597,3.0553,3.0592,3.059,3.0594,3.0595,3.0591,3.0545,3.0543,3.0542,3.0542,0,3.0836,3.0839,3.0813,3.0787,3.0765,3.0744,3.0725,3.0708,3.0713,3.0689,3.0654,3.0633,3.0592,3.0558,3.0527,3.0516,3.0528,3.053,3.0519,3.0514,3.0515,3.0512,3.0646,3.0532,3.0533,3.0534,3.0534,3.0535,3.0761,3.0733,3.0719,3.0689,3.0676,3.0657,3.063,3.0625,3.0597,3.0565,3.0571,3.0531,3.0512,3.0473,3.0459,3.0427,3.0441,3.0426,3.0421,3.0416,3.0411,3.0522,3.0421,3.0422,3.0422,3.0422,3.0422,0,3.0659,3.0651,3.0623,3.0597,3.0573,3.059,3.057,3.0548,3.0513,3.0496,3.047,3.0429,3.0396,3.0386,3.0353,3.0329,3.0334,3.032,3.0321,3.0318,3.0401,3.0413,3.0317,3.0317,3.0317,3.0317,3.0317,3.0317,3.0602,3.0556,3.0557,3.0504,3.0495,3.0458,3.0445,3.0428,3.0414,3.0368,3.0342,3.0336,3.0321,3.0287,3.0257,3.0255,3.0241,3.0224,3.0224,3.0301,3.0312,3.0322,3.0333,3.0222,3.0222,3.0143,3.0143,3.0142]}]]